DW5321 Paradera AW current weather conditions

sailwx.info

Wind from 096 at 9 knots gusting 15

Air temperature 27.2° C
Dewpoint 25.1° C

Last reported at 2014-Jul-24 02:44 UTC.
Time now 2014-Jul-24 03:53 UTC

Location: N 12°33' W 070°00'.
View on Google Maps.

See reports from other nearby stations

  
Tides and Currents Weather Stations Pressure Air Temp Water Temp Dewpoint Dewpoint Depression Visibility Wind Speed Wind Dir Waves Ship Positions
date/time (UTC)wind fromknots sea level pressurealtimeterstation pressurevisibilityair tempwater tempwave heightnotes
2014-Jul-24 02:44 096 9 gusting 15 27.2
2014-Jul-24 02:29 122 10 gusting 15 27.2
2014-Jul-24 02:14 089 8 gusting 16 27.2
2014-Jul-24 01:58 070 6 gusting 15 27.2
2014-Jul-24 01:43 058 8 gusting 17 27.2
2014-Jul-24 01:28 082 6 gusting 14 27.2
2014-Jul-24 01:13 114 9 gusting 14 27.2
2014-Jul-24 00:58 103 8 gusting 15 27.2
2014-Jul-24 00:43 079 11 gusting 15 27.2
2014-Jul-24 00:27 077 9 gusting 15 27.2
2014-Jul-24 00:12 075 7 gusting 14 27.2
2014-Jul-23 23:57 079 7 gusting 15 27.2
2014-Jul-23 23:42 056 10 gusting 19 27.2
2014-Jul-23 23:27 077 9 gusting 14 27.2
2014-Jul-23 23:11 091 10 gusting 17 27.2
2014-Jul-23 22:56 077 7 gusting 15 27.8
2014-Jul-23 22:41 082 7 gusting 18 27.8
2014-Jul-23 22:26 075 9 gusting 17 27.8
2014-Jul-23 22:11 060 8 gusting 17 27.8
2014-Jul-23 21:56 068 10 gusting 18 27.8
2014-Jul-23 21:41 082 7 gusting 15 27.8
2014-Jul-23 21:26 053 10 gusting 18 28.3
2014-Jul-23 21:11 108 9 gusting 17 28.9
2014-Jul-23 20:56 077 10 gusting 17 28.9
2014-Jul-23 20:41 062 10 gusting 19 28.9
2014-Jul-23 20:24 064 12 gusting 19 29.4
2014-Jul-23 20:09 057 13 gusting 20 29.4
2014-Jul-23 19:54 077 11 gusting 18 29.4
2014-Jul-23 19:39 086 13 gusting 21 29.4
2014-Jul-23 19:24 063 12 gusting 19 29.4
2014-Jul-23 19:08 096 13 gusting 22 29.4
2014-Jul-23 18:53 089 12 gusting 19 29.4
2014-Jul-23 18:38 077 13 gusting 21 29.4
2014-Jul-23 18:23 053 13 gusting 23 29.4
2014-Jul-23 18:08 082 8 gusting 19 30.0
2014-Jul-23 17:52 061 13 gusting 20 29.4
2014-Jul-23 17:37 084 10 gusting 20 30.0
2014-Jul-23 17:22 075 11 gusting 20 30.0
2014-Jul-23 17:07 088 13 gusting 20 30.0
2014-Jul-23 16:52 060 13 gusting 23 30.0
2014-Jul-23 16:37 108 10 gusting 19 30.0
2014-Jul-23 16:06 088 11 gusting 19 29.4
2014-Jul-23 15:51 073 13 gusting 22 29.4
2014-Jul-23 15:36 105 13 gusting 22 29.4
2014-Jul-23 15:21 101 13 gusting 22 29.4
2014-Jul-23 15:06 077 13 gusting 19 29.4
2014-Jul-23 14:50 073 11 gusting 21 29.4
2014-Jul-23 14:35 111 13 gusting 26 28.9
2014-Jul-23 14:20 134 14 gusting 23 28.9
2014-Jul-23 14:06 138 12 gusting 23 28.9
2014-Jul-23 13:49 108 12 gusting 19 28.9
2014-Jul-23 13:34 139 13 gusting 19 28.9
2014-Jul-23 13:19 092 10 gusting 17 28.9
2014-Jul-23 13:04 082 10 gusting 19 28.9
2014-Jul-23 12:49 102 13 gusting 20 28.3
2014-Jul-23 12:33 105 10 gusting 16 28.3
2014-Jul-23 12:04 073 8 gusting 16 27.8
2014-Jul-23 11:48 089 6 gusting 19 27.2
2014-Jul-23 11:32 090 10 gusting 16 27.2
2014-Jul-23 11:17 084 8 gusting 15 26.7
2014-Jul-23 11:01 088 9 gusting 17 26.7
2014-Jul-23 10:46 094 7 gusting 13 26.7
2014-Jul-23 10:31 101 11 gusting 16 26.7
2014-Jul-23 10:16 096 10 gusting 18 26.7
2014-Jul-23 10:01 089 6 gusting 13 26.7
2014-Jul-23 09:46 108 9 gusting 13 26.7
2014-Jul-23 09:31 120 7 gusting 13 26.7
2014-Jul-23 09:15 095 7 gusting 13 26.7
2014-Jul-23 09:01 103 5 gusting 11 26.7
2014-Jul-23 08:45 114 6 gusting 12 26.7
2014-Jul-23 08:30 108 9 gusting 13 26.7
2014-Jul-23 08:15 093 5 gusting 15 26.7
2014-Jul-23 08:01 094 8 gusting 13 26.7
2014-Jul-23 07:44 125 8 gusting 14 26.7
2014-Jul-23 07:29 099 8 gusting 13 26.7
2014-Jul-23 07:14 105 7 gusting 15 26.7
2014-Jul-23 06:59 086 7 gusting 13 26.7
2014-Jul-23 06:44 108 8 gusting 14 26.7
2014-Jul-23 06:29 080 6 gusting 11 26.7
2014-Jul-23 06:14 101 8 gusting 14 26.7
2014-Jul-23 05:59 079 6 gusting 11 27.2
2014-Jul-23 05:44 060 8 gusting 12 26.7
2014-Jul-23 05:29 077 5 gusting 12 26.7
2014-Jul-23 05:12 079 6 gusting 13 26.7
2014-Jul-23 04:57 100 6 gusting 12 26.7
2014-Jul-23 04:42 105 5 gusting 13 26.7
2014-Jul-23 04:27 064 8 gusting 14 26.7
2014-Jul-23 04:12 012 6 gusting 13 26.7
2014-Jul-23 03:56 120 7 gusting 12 26.7
2014-Jul-23 03:41 080 8 gusting 13 26.7
2014-Jul-23 03:26 061 6 gusting 14 26.7
2014-Jul-23 03:11 088 6 gusting 13 26.7
2014-Jul-23 02:56 105 7 gusting 12 26.7
2014-Jul-23 02:40 093 7 gusting 16 26.7
2014-Jul-23 02:25 023 6 gusting 13 26.7
2014-Jul-23 02:10 081 8 gusting 13 26.7
2014-Jul-23 01:55 077 8 gusting 13 26.7
2014-Jul-23 01:40 081 9 gusting 13 26.7
2014-Jul-23 01:25 090 6 gusting 13 26.7
2014-Jul-23 01:09 075 8 gusting 16 26.7
2014-Jul-23 00:54 060 7 gusting 13 27.2
2014-Jul-23 00:39 117 8 gusting 13 27.2
2014-Jul-23 00:24 091 8 gusting 13 27.2
2014-Jul-23 00:09 060 7 gusting 16 27.2
2014-Jul-22 23:54 079 8 gusting 13 27.2
2014-Jul-22 23:39 110 8 gusting 14 27.2
2014-Jul-22 23:24 078 7 gusting 12 27.2
2014-Jul-22 23:09 086 6 gusting 11 27.8
2014-Jul-22 22:54 081 7 gusting 12 27.8
2014-Jul-22 22:39 071 8 gusting 14 27.8
2014-Jul-22 22:22 070 9 gusting 16 28.3
2014-Jul-22 22:07 117 11 gusting 16 28.3
2014-Jul-22 21:52 108 6 gusting 15 28.3
2014-Jul-22 21:37 080 9 gusting 13 28.9
2014-Jul-22 21:22 090 9 gusting 17 28.9
2014-Jul-22 21:07 088 11 gusting 18 28.9
2014-Jul-22 20:51 094 11 gusting 19 29.4
2014-Jul-22 20:36 108 9 gusting 19 29.4
2014-Jul-22 20:21 094 10 gusting 17 29.4
2014-Jul-22 20:06 068 10 gusting 17 29.4
2014-Jul-22 19:50 075 10 gusting 19 29.4
2014-Jul-22 19:35 083 11 gusting 18 29.4
2014-Jul-22 19:20 117 11 gusting 18 29.4
2014-Jul-22 19:05 044 12 gusting 20 29.4
2014-Jul-22 18:50 072 13 gusting 20 29.4
2014-Jul-22 18:35 030 12 gusting 20 29.4
2014-Jul-22 18:19 047 10 gusting 19 29.4
2014-Jul-22 17:49 088 12 gusting 19 29.4
2014-Jul-22 17:34 086 11 gusting 19 29.4
2014-Jul-22 17:19 047 13 gusting 21 30.0
2014-Jul-22 17:04 101 10 gusting 16 30.0
2014-Jul-22 16:48 101 9 gusting 15 29.4
2014-Jul-22 16:34 077 9 gusting 14 30.0
2014-Jul-22 16:18 077 7 gusting 15 29.4
2014-Jul-22 16:04 071 7 gusting 19 30.0
2014-Jul-22 15:48 082 9 gusting 14 29.4
2014-Jul-22 15:34 050 8 gusting 14 29.4
2014-Jul-22 15:18 077 10 gusting 17 28.9
2014-Jul-22 15:03 100 12 gusting 17 28.9
2014-Jul-22 14:48 136 9 gusting 15 28.3
2014-Jul-22 14:32 108 9 gusting 15 28.9
2014-Jul-22 14:18 050 11 gusting 17 29.4
2014-Jul-22 14:02 105 10 gusting 18 28.9
2014-Jul-22 13:47 107 9 gusting 17 28.9
2014-Jul-22 13:33 113 10 gusting 19 28.3
2014-Jul-22 13:17 094 10 gusting 17 28.3
2014-Jul-22 13:03 108 10 gusting 15 28.3
2014-Jul-22 12:47 077 11 gusting 16 28.3
2014-Jul-22 12:33 105 9 gusting 15 27.8
2014-Jul-22 12:17 103 10 gusting 15 27.8
2014-Jul-22 12:01 084 10 gusting 17 27.8
2014-Jul-22 11:47 096 10 gusting 16 27.2
2014-Jul-22 11:32 107 6 gusting 13 27.2
2014-Jul-22 11:16 132 9 gusting 13 26.7
2014-Jul-22 11:02 104 8 gusting 13 26.7
2014-Jul-22 10:46 092 8 gusting 12 26.7
2014-Jul-22 10:31 110 7 gusting 13 26.7
2014-Jul-22 10:15 111 5 gusting 13 26.7
2014-Jul-22 10:01 114 10 gusting 15 26.7
2014-Jul-22 09:45 104 10 gusting 16 26.7
2014-Jul-22 09:31 114 11 gusting 14 26.7
2014-Jul-22 09:16 110 6 gusting 13 26.7
2014-Jul-22 09:00 081 8 gusting 13 26.7
2014-Jul-22 08:45 099 9 gusting 14 26.7
2014-Jul-22 08:31 104 6 gusting 12 26.7
2014-Jul-22 08:15 084 8 gusting 14 26.7
2014-Jul-22 08:00 101 6 gusting 10 26.7
2014-Jul-22 07:45 045 8 gusting 14 26.7
2014-Jul-22 07:30 077 5 gusting 12 26.7
2014-Jul-22 07:16 089 9 gusting 13 26.7
2014-Jul-22 07:00 077 7 gusting 13 26.7
2014-Jul-22 06:45 070 9 gusting 14 26.7
2014-Jul-22 06:30 122 9 gusting 16 26.7
2014-Jul-22 06:15 107 7 gusting 14 26.7
2014-Jul-22 06:00 095 9 gusting 13 26.7
2014-Jul-22 05:44 092 8 gusting 14 26.7
2014-Jul-22 05:30 095 7 gusting 18 26.7
2014-Jul-22 05:14 063 8 gusting 14 26.7
2014-Jul-22 05:00 063 10 gusting 17 26.7
2014-Jul-22 04:44 098 6 gusting 13 26.7
2014-Jul-22 04:29 102 7 gusting 14 26.7
2014-Jul-22 04:13 105 7 gusting 13 26.7
2014-Jul-22 03:59 115 7 gusting 14 26.7
2014-Jul-22 03:43 112 8 gusting 14 26.7
2014-Jul-22 03:29 098 7 gusting 15 27.2
2014-Jul-22 03:13 086 9 gusting 15 27.2